TimeCDT,TemperatureF,Dew PointF,Humidity,Sea Level PressureIn,VisibilityMPH,Wind Direction,Wind SpeedMPH,Gust SpeedMPH,PrecipitationIn,Events,Conditions,WindDirDegrees,DateUTC
12:53 AM,53.1,42.1,66,29.88,10.0,SSE,3.5,-,N/A,,Overcast,150,2013-03-22 05:53:00
1:53 AM,53.1,42.1,66,29.86,10.0,SE,5.8,-,N/A,,Overcast,140,2013-03-22 06:53:00
2:53 AM,53.1,43.0,69,29.83,10.0,SSE,9.2,-,N/A,,Overcast,150,2013-03-22 07:53:00
3:53 AM,54.0,45.0,72,29.81,10.0,SE,6.9,-,N/A,,Overcast,140,2013-03-22 08:53:00
4:53 AM,55.0,46.0,72,29.80,10.0,SE,5.8,-,N/A,,Overcast,130,2013-03-22 09:53:00
5:05 AM,55.4,46.4,72,29.81,10.0,SE,5.8,-,N/A,,Overcast,130,2013-03-22 10:05:00
5:53 AM,55.9,46.9,72,29.82,10.0,Variable,5.8,-,N/A,,Overcast,0,2013-03-22 10:53:00
6:53 AM,55.0,48.0,77,29.83,10.0,SSE,8.1,-,0.00,Rain,Light Rain,150,2013-03-22 11:53:00
7:53 AM,55.9,48.9,77,29.83,10.0,SSE,8.1,-,0.00,,Overcast,150,2013-03-22 12:53:00
8:53 AM,55.9,48.9,77,29.85,10.0,SE,6.9,-,N/A,,Overcast,140,2013-03-22 13:53:00
9:53 AM,59.0,51.1,75,29.86,10.0,SSE,9.2,-,N/A,,Overcast,150,2013-03-22 14:53:00
10:53 AM,60.1,55.9,86,29.86,10.0,SSE,9.2,-,0.00,,Overcast,160,2013-03-22 15:53:00
11:53 AM,61.0,55.9,83,29.86,10.0,SSE,11.5,-,N/A,,Overcast,160,2013-03-22 16:53:00
12:53 PM,64.0,57.9,80,29.85,10.0,SE,5.8,-,N/A,,Overcast,140,2013-03-22 17:53:00
1:53 PM,61.0,54.0,78,29.83,10.0,Variable,5.8,-,N/A,,Overcast,0,2013-03-22 18:53:00
2:37 PM,57.2,51.8,82,29.82,10.0,East,6.9,-,N/A,,Overcast,80,2013-03-22 19:37:00
2:53 PM,59.0,52.0,78,29.81,10.0,East,5.8,-,N/A,,Overcast,90,2013-03-22 19:53:00
3:53 PM,60.1,52.0,75,29.79,10.0,Variable,3.5,-,N/A,,Overcast,0,2013-03-22 20:53:00
4:39 PM,62.6,53.6,72,29.79,10.0,East,5.8,-,N/A,,Overcast,90,2013-03-22 21:39:00
4:46 PM,62.6,53.6,72,29.79,10.0,East,5.8,-,N/A,,Overcast,80,2013-03-22 21:46:00
4:53 PM,63.0,55.0,75,29.78,10.0,ENE,4.6,-,N/A,,Overcast,70,2013-03-22 21:53:00
5:16 PM,64.4,55.4,73,29.79,10.0,Variable,5.8,-,N/A,,Overcast,0,2013-03-22 22:16:00
5:53 PM,64.9,57.0,75,29.78,10.0,East,5.8,-,N/A,,Mostly Cloudy,90,2013-03-22 22:53:00
6:53 PM,64.0,57.9,80,29.78,10.0,East,3.5,-,N/A,,Scattered Clouds,100,2013-03-22 23:53:00
7:40 PM,62.6,57.2,82,29.79,10.0,East,4.6,-,N/A,,Mostly Cloudy,100,2013-03-23 00:40:00
7:53 PM,64.0,57.9,80,29.79,10.0,East,3.5,-,N/A,,Overcast,90,2013-03-23 00:53:00
8:53 PM,64.0,60.1,87,29.81,10.0,Variable,4.6,-,N/A,,Overcast,0,2013-03-23 01:53:00
9:13 PM,64.4,60.8,88,29.82,10.0,Variable,4.6,-,N/A,,Overcast,0,2013-03-23 02:13:00
9:53 PM,64.0,60.1,87,29.83,10.0,Variable,4.6,-,N/A,,Overcast,0,2013-03-23 02:53:00
10:53 PM,63.0,60.1,90,29.84,10.0,Variable,3.5,-,N/A,,Overcast,0,2013-03-23 03:53:00
11:53 PM,63.0,60.1,90,29.83,7.0,SE,5.8,-,0.01,,Overcast,140,2013-03-23 04:53:00